EXS4DG GCTS-EGNM

Flight info

Callsign EXS4DG
Flight time 3h 47m
Altitude 36000
Route KASAS DCT SAMAR DCT NEVTU DCT TIGGI DCT LUVUP DCT EKPER/N0436F380 DCT ADNOV DCT PINEK DCT KORUL DCT KOLEK DCT EBOMO DCT RUSIB DCT NOZHU/N0444F390 DCT SHIRI DCT TOJAQ DCT EPACE/N0415F330 DCT ACCOP/N0336F200 DCT MOCQO P16 MONTY N864 REXAM/N0331F190 DCT BARTN DCT POL
Aircraft B738/M-SDFGHIJ1J3J4J7M3RWXY/LB1

Departure

Time 2026-05-07 19:33
Airport Tenerife Sur Airport (GCTS)

Arrival

Time 2026-05-07 23:20
Airport Leeds Bradford Airport (EGNM)
Time Latitude Longitude Altitude Speed Heading
2026-05-07 19:04 28.04585 -16.58059 216 ft 0 kts 339°
2026-05-07 19:24 28.04569 -16.58052 216 ft 3 kts 339°
2026-05-07 19:24 28.04549 -16.58043 221 ft 3 kts 339°
2026-05-07 19:25 28.04532 -16.58035 221 ft 3 kts 327°
2026-05-07 19:25 28.04518 -16.58021 216 ft 3 kts 290°
2026-05-07 19:25 28.04516 -16.57999 216 ft 3 kts 258°
2026-05-07 19:25 28.04522 -16.57977 220 ft 3 kts 246°
2026-05-07 19:26 28.04530 -16.57956 216 ft 2 kts 248°
2026-05-07 19:26 28.04537 -16.57934 216 ft 3 kts 250°
2026-05-07 19:26 28.04539 -16.57928 216 ft 0 kts 251°
2026-05-07 19:28 28.04539 -16.57931 216 ft 2 kts 250°
2026-05-07 19:28 28.04521 -16.57979 217 ft 11 kts 248°
2026-05-07 19:29 28.04481 -16.58093 217 ft 19 kts 248°
2026-05-07 19:29 28.04428 -16.58202 219 ft 13 kts 205°
2026-05-07 19:29 28.04345 -16.58180 219 ft 11 kts 162°
2026-05-07 19:29 28.04291 -16.58227 222 ft 12 kts 249°
2026-05-07 19:30 28.04260 -16.58317 217 ft 15 kts 249°
2026-05-07 19:30 28.04210 -16.58463 217 ft 22 kts 248°
2026-05-07 19:30 28.04162 -16.58626 213 ft 22 kts 248°
2026-05-07 19:30 28.04108 -16.58779 215 ft 18 kts 249°
2026-05-07 19:31 28.04062 -16.58914 204 ft 19 kts 249°
2026-05-07 19:31 28.04001 -16.58993 200 ft 13 kts 182°
2026-05-07 19:31 28.03937 -16.58931 205 ft 12 kts 120°
2026-05-07 19:31 28.03903 -16.58843 209 ft 12 kts 95°
2026-05-07 19:32 28.03921 -16.58763 204 ft 13 kts 68°
2026-05-07 19:32 28.04032 -16.58444 204 ft 77 kts 68°
2026-05-07 19:32 28.04308 -16.57651 188 ft 137 kts 68°
2026-05-07 19:32 28.04693 -16.56484 304 ft 173 kts 72°
2026-05-07 19:33 28.05097 -16.55214 993 ft 172 kts 71°
2026-05-07 19:33 28.05543 -16.53932 1674 ft 177 kts 68°
2026-05-07 19:33 28.06040 -16.52549 2014 ft 204 kts 68°
2026-05-07 19:33 28.06603 -16.50966 2209 ft 230 kts 68°
2026-05-07 19:34 28.07232 -16.49192 2515 ft 253 kts 68°
2026-05-07 19:34 28.07897 -16.47304 3144 ft 262 kts 68°
2026-05-07 19:34 28.08576 -16.45371 3856 ft 267 kts 68°
2026-05-07 19:34 28.09246 -16.43379 4531 ft 275 kts 68°
2026-05-07 19:35 28.09909 -16.41330 5251 ft 278 kts 68°
2026-05-07 19:35 28.10578 -16.39249 5848 ft 289 kts 68°
2026-05-07 19:35 28.11296 -16.37021 6072 ft 312 kts 68°
2026-05-07 19:35 28.12052 -16.34675 6608 ft 321 kts 68°
2026-05-07 19:36 28.12822 -16.32283 7259 ft 326 kts 67°
2026-05-07 19:36 28.13606 -16.29849 7871 ft 332 kts 67°
2026-05-07 19:36 28.14500 -16.27418 8451 ft 335 kts 54°
2026-05-07 19:36 28.16126 -16.25608 9114 ft 327 kts 25°
2026-05-07 19:37 28.18255 -16.24822 9839 ft 321 kts
2026-05-07 19:37 28.20473 -16.24440 10446 ft 325 kts
2026-05-07 19:37 28.22733 -16.24106 10998 ft 330 kts
2026-05-07 19:37 28.25022 -16.23778 11601 ft 334 kts
2026-05-07 19:38 28.27338 -16.23441 12227 ft 338 kts
2026-05-07 19:38 28.29685 -16.23092 12864 ft 342 kts
2026-05-07 19:38 28.32057 -16.22732 13467 ft 347 kts
2026-05-07 19:38 28.34461 -16.22361 14065 ft 351 kts
2026-05-07 19:39 28.36893 -16.21980 14640 ft 355 kts
2026-05-07 19:39 28.39355 -16.21593 15220 ft 360 kts
2026-05-07 19:39 28.41849 -16.21199 15801 ft 364 kts
2026-05-07 19:39 28.43519 -16.20935 16189 ft 367 kts
2026-05-07 19:40 28.46064 -16.20459 16748 ft 375 kts
2026-05-07 19:40 28.48624 -16.19793 17314 ft 381 kts
2026-05-07 19:40 28.51210 -16.19046 17854 ft 386 kts
2026-05-07 19:40 28.53826 -16.18270 18426 ft 391 kts
2026-05-07 19:41 28.56471 -16.17488 18932 ft 395 kts
2026-05-07 19:41 28.59147 -16.16708 19498 ft 398 kts
2026-05-07 19:41 28.61840 -16.15932 20013 ft 401 kts
2026-05-07 19:41 28.64563 -16.15157 20466 ft 406 kts
2026-05-07 19:42 28.67323 -16.14376 20923 ft 411 kts
2026-05-07 19:42 28.70111 -16.13589 21380 ft 415 kts
2026-05-07 19:42 28.72927 -16.12796 21826 ft 419 kts
2026-05-07 19:42 28.75770 -16.11994 22273 ft 423 kts
2026-05-07 19:43 28.78648 -16.11183 22709 ft 428 kts
2026-05-07 19:43 28.81549 -16.10364 23142 ft 432 kts
2026-05-07 19:43 28.84478 -16.09537 23565 ft 436 kts
2026-05-07 19:43 28.87435 -16.08700 23950 ft 440 kts
2026-05-07 19:44 28.90416 -16.07857 24325 ft 442 kts
2026-05-07 19:44 28.93408 -16.07008 24747 ft 444 kts
2026-05-07 19:44 28.96407 -16.06157 25154 ft 445 kts
2026-05-07 19:44 28.99422 -16.05302 25525 ft 448 kts
2026-05-07 19:45 29.02458 -16.04441 25894 ft 450 kts
2026-05-07 19:45 29.05506 -16.03577 26261 ft 453 kts
2026-05-07 19:45 29.08566 -16.02709 26630 ft 455 kts
2026-05-07 19:45 29.11644 -16.01834 26984 ft 457 kts
2026-05-07 19:46 29.14735 -16.00956 27378 ft 459 kts
2026-05-07 19:46 29.17844 -16.00072 27721 ft 461 kts
2026-05-07 19:46 29.20966 -15.99184 28043 ft 464 kts
2026-05-07 19:46 29.24114 -15.98289 28274 ft 469 kts
2026-05-07 19:47 29.27286 -15.97387 28567 ft 471 kts
2026-05-07 19:47 29.30476 -15.96477 28914 ft 473 kts
2026-05-07 19:47 29.33674 -15.95563 29246 ft 474 kts
2026-05-07 19:47 29.36883 -15.94645 29543 ft 477 kts
2026-05-07 19:48 29.40106 -15.93724 29845 ft 479 kts
2026-05-07 19:48 29.43347 -15.92798 30183 ft 481 kts
2026-05-07 19:48 29.46606 -15.91866 30361 ft 485 kts
2026-05-07 19:48 29.49895 -15.90926 30579 ft 487 kts
2026-05-07 19:49 29.53175 -15.89984 30956 ft 485 kts
2026-05-07 19:49 29.56436 -15.89044 31383 ft 482 kts
2026-05-07 19:49 29.59677 -15.88110 31771 ft 479 kts
2026-05-07 19:49 29.62870 -15.87192 32089 ft 479 kts
2026-05-07 19:50 29.66102 -15.86265 32394 ft 479 kts
2026-05-07 19:50 29.69318 -15.85230 32700 ft 488 kts 10°
2026-05-07 19:50 29.72419 -15.83492 33013 ft 504 kts 22°
2026-05-07 19:50 29.75341 -15.81210 33319 ft 512 kts 29°
2026-05-07 19:51 29.78043 -15.78479 33571 ft 522 kts 38°
2026-05-07 19:51 29.80577 -15.75482 33868 ft 523 kts 39°
2026-05-07 19:51 29.83069 -15.72430 34131 ft 523 kts 40°
2026-05-07 19:51 29.85547 -15.69372 34374 ft 522 kts 38°
2026-05-07 19:52 29.88191 -15.66578 34573 ft 510 kts 27°
2026-05-07 19:52 29.91100 -15.64300 34812 ft 502 kts 23°
2026-05-07 19:52 29.94047 -15.62134 34998 ft 503 kts 22°
2026-05-07 19:52 29.96999 -15.59986 35231 ft 502 kts 22°
2026-05-07 19:53 29.99936 -15.57835 35525 ft 500 kts 23°
2026-05-07 19:53 30.02857 -15.55674 35899 ft 497 kts 23°
2026-05-07 19:53 30.05763 -15.53505 36025 ft 499 kts 22°
2026-05-07 19:53 30.08687 -15.51312 36016 ft 503 kts 23°
2026-05-07 19:54 30.14535 -15.46893 36011 ft 501 kts 23°
2026-05-07 19:54 30.20333 -15.42489 36012 ft 497 kts 23°
2026-05-07 19:55 30.26091 -15.38117 36014 ft 494 kts 23°
2026-05-07 19:55 30.31827 -15.33763 36020 ft 492 kts 23°
2026-05-07 19:56 30.37579 -15.29398 36034 ft 499 kts 22°
2026-05-07 19:56 30.43431 -15.24955 36031 ft 506 kts 23°
2026-05-07 19:57 30.49329 -15.20457 36024 ft 509 kts 23°
2026-05-07 19:57 30.55248 -15.15930 36020 ft 510 kts 23°
2026-05-07 19:58 30.61176 -15.11391 36017 ft 510 kts 23°
2026-05-07 19:58 30.67098 -15.06853 36027 ft 510 kts 23°
2026-05-07 19:59 30.73006 -15.02319 36022 ft 508 kts 23°
2026-05-07 19:59 30.78890 -14.97798 36008 ft 506 kts 23°
2026-05-07 20:00 30.84752 -14.93287 36026 ft 504 kts 23°
2026-05-07 20:00 30.90597 -14.88785 36013 ft 503 kts 23°
2026-05-07 20:01 30.96436 -14.84281 36047 ft 504 kts 24°
2026-05-07 20:01 31.02285 -14.79764 36029 ft 505 kts 24°
2026-05-07 20:02 31.08140 -14.75234 36016 ft 506 kts 24°
2026-05-07 20:02 31.13973 -14.70712 36021 ft 507 kts 24°
2026-05-07 20:03 31.19914 -14.66150 36016 ft 507 kts 23°
2026-05-07 20:03 31.25890 -14.61784 36078 ft 507 kts 24°
2026-05-07 20:04 31.31859 -14.57462 36013 ft 508 kts 24°
2026-05-07 20:04 31.37851 -14.53084 36007 ft 508 kts 24°
2026-05-07 20:05 31.43872 -14.48657 36011 ft 507 kts 24°
2026-05-07 20:05 31.49809 -14.44278 36012 ft 508 kts 24°
2026-05-07 20:06 31.55784 -14.39866 36055 ft 508 kts 25°
2026-05-07 20:06 31.61762 -14.35445 36012 ft 507 kts 25°
2026-05-07 20:07 31.67720 -14.31032 36002 ft 506 kts 25°
2026-05-07 20:07 31.73651 -14.26632 35999 ft 504 kts 25°
2026-05-07 20:08 31.79571 -14.22235 36002 ft 502 kts 25°
2026-05-07 20:08 31.85472 -14.17847 36010 ft 502 kts 26°
2026-05-07 20:09 31.91369 -14.13454 36011 ft 502 kts 26°
2026-05-07 20:10 32.00216 -14.06852 36006 ft 502 kts 26°
2026-05-07 20:10 32.06115 -14.02440 35997 ft 503 kts 26°
2026-05-07 20:11 32.12025 -13.98013 36059 ft 504 kts 26°
2026-05-07 20:11 32.17952 -13.93568 36002 ft 505 kts 26°
2026-05-07 20:12 32.23877 -13.89115 35997 ft 505 kts 26°
2026-05-07 20:12 32.29798 -13.84658 35984 ft 505 kts 27°
2026-05-07 20:13 32.35720 -13.80193 35995 ft 504 kts 27°
2026-05-07 20:13 32.41640 -13.75725 36042 ft 505 kts 27°
2026-05-07 20:14 32.47576 -13.71238 35998 ft 507 kts 27°
2026-05-07 20:14 32.53516 -13.66738 35998 ft 507 kts 27°
2026-05-07 20:15 32.59418 -13.62260 35992 ft 507 kts 27°
2026-05-07 20:15 32.65358 -13.57748 35997 ft 507 kts 27°
2026-05-07 20:16 32.71291 -13.53232 35995 ft 506 kts 27°
2026-05-07 20:16 32.77216 -13.48716 35968 ft 506 kts 28°
2026-05-07 20:17 32.83141 -13.44193 36002 ft 506 kts 28°
2026-05-07 20:17 32.89075 -13.39657 36001 ft 508 kts 28°
2026-05-07 20:18 32.95028 -13.35098 36005 ft 510 kts 28°
2026-05-07 20:18 33.01002 -13.30516 36001 ft 512 kts 28°
2026-05-07 20:19 33.06996 -13.25909 36001 ft 513 kts 28°
2026-05-07 20:19 33.12997 -13.21290 35988 ft 513 kts 28°
2026-05-07 20:20 33.18991 -13.16668 35985 ft 513 kts 28°
2026-05-07 20:20 33.24977 -13.12044 35965 ft 512 kts 29°
2026-05-07 20:21 33.30955 -13.07420 35990 ft 512 kts 29°
2026-05-07 20:21 33.36927 -13.02793 35988 ft 511 kts 29°
2026-05-07 20:22 33.42895 -12.98163 35987 ft 511 kts 29°
2026-05-07 20:22 33.48855 -12.93529 35985 ft 511 kts 30°
2026-05-07 20:23 33.54811 -12.88892 36022 ft 510 kts 30°
2026-05-07 20:23 33.60767 -12.84247 35986 ft 510 kts 30°
2026-05-07 20:24 33.66713 -12.79602 35981 ft 510 kts 30°
2026-05-07 20:24 33.72656 -12.74951 35963 ft 510 kts 30°
2026-05-07 20:25 33.78598 -12.70292 35984 ft 510 kts 30°
2026-05-07 20:25 33.83542 -12.66412 36012 ft 511 kts 31°
2026-05-07 20:26 33.89508 -12.61723 35980 ft 513 kts 31°
2026-05-07 20:26 33.95477 -12.57021 35980 ft 513 kts 31°
2026-05-07 20:27 34.01452 -12.52306 35982 ft 514 kts 31°
2026-05-07 20:27 34.07430 -12.47580 35979 ft 514 kts 31°
2026-05-07 20:28 34.13409 -12.42846 35992 ft 514 kts 31°
2026-05-07 20:28 34.19388 -12.38104 35960 ft 514 kts 31°
2026-05-07 20:29 34.25353 -12.33364 35970 ft 513 kts 31°
2026-05-07 20:29 34.31309 -12.28625 35974 ft 512 kts 31°
2026-05-07 20:30 34.37263 -12.23879 35983 ft 512 kts 31°
2026-05-07 20:30 34.43220 -12.19123 35983 ft 513 kts 32°
2026-05-07 20:31 34.49169 -12.14364 35972 ft 512 kts 32°
2026-05-07 20:31 34.55115 -12.09599 35968 ft 512 kts 32°
2026-05-07 20:32 34.61056 -12.04830 35974 ft 512 kts 32°
2026-05-07 20:32 34.66982 -12.00065 35991 ft 510 kts 33°
2026-05-07 20:33 34.72894 -11.95303 35977 ft 510 kts 33°
2026-05-07 20:33 34.78806 -11.90532 35977 ft 510 kts 33°
2026-05-07 20:34 34.84721 -11.85751 35979 ft 511 kts 33°
2026-05-07 20:34 34.90606 -11.80984 35976 ft 512 kts 33°
2026-05-07 20:35 34.96541 -11.76170 35983 ft 513 kts 33°
2026-05-07 20:35 35.02479 -11.71345 35980 ft 513 kts 33°
2026-05-07 20:36 35.08416 -11.66513 35980 ft 513 kts 33°
2026-05-07 20:36 35.14349 -11.61674 35960 ft 512 kts 33°
2026-05-07 20:37 35.20275 -11.56833 35998 ft 512 kts 33°
2026-05-07 20:37 35.26187 -11.51994 35972 ft 511 kts 33°
2026-05-07 20:38 35.32094 -11.47151 35966 ft 510 kts 33°
2026-05-07 20:38 35.37981 -11.42316 35969 ft 509 kts 33°
2026-05-07 20:39 35.43855 -11.37482 35965 ft 508 kts 33°
2026-05-07 20:39 35.49716 -11.32651 35966 ft 507 kts 33°
2026-05-07 20:40 35.55556 -11.27829 35965 ft 505 kts 34°
2026-05-07 20:40 35.61387 -11.23005 35967 ft 506 kts 34°
2026-05-07 20:41 35.67222 -11.18168 35976 ft 506 kts 34°
2026-05-07 20:41 35.73073 -11.13309 35986 ft 508 kts 34°
2026-05-07 20:42 35.78938 -11.08431 35963 ft 510 kts 34°
2026-05-07 20:42 35.84817 -11.03533 35963 ft 511 kts 34°
2026-05-07 20:43 35.90704 -10.98618 35967 ft 511 kts 34°
2026-05-07 20:43 35.96654 -10.93830 35909 ft 511 kts 27°
2026-05-07 20:44 36.03164 -10.90624 35982 ft 507 kts 16°
2026-05-07 20:44 36.09863 -10.87876 35972 ft 507 kts 16°
2026-05-07 20:45 36.16553 -10.85092 35966 ft 508 kts 17°
2026-05-07 20:45 36.23234 -10.82242 35966 ft 508 kts 17°
2026-05-07 20:46 36.29911 -10.79383 35977 ft 508 kts 16°
2026-05-07 20:46 36.36672 -10.76873 35972 ft 507 kts 13°
2026-05-07 20:47 36.43461 -10.74496 35964 ft 507 kts 13°
2026-05-07 20:47 36.50229 -10.72073 35971 ft 506 kts 14°
2026-05-07 20:48 36.56994 -10.69597 35963 ft 506 kts 14°
2026-05-07 20:48 36.63747 -10.67106 35963 ft 506 kts 14°
2026-05-07 20:49 36.70492 -10.64615 35965 ft 505 kts 14°
2026-05-07 20:49 36.77235 -10.62124 35976 ft 505 kts 14°
2026-05-07 20:50 36.83970 -10.59633 35967 ft 505 kts 14°
2026-05-07 20:50 36.90699 -10.57139 35931 ft 504 kts 14°
2026-05-07 20:51 36.97417 -10.54643 35953 ft 503 kts 14°
2026-05-07 20:51 37.04129 -10.52146 35977 ft 503 kts 14°
2026-05-07 20:52 37.10832 -10.49648 35959 ft 503 kts 14°
2026-05-07 20:52 37.17534 -10.47145 35968 ft 502 kts 14°
2026-05-07 20:53 37.24231 -10.44639 35961 ft 502 kts 14°
2026-05-07 20:53 37.30924 -10.42130 35968 ft 502 kts 14°
2026-05-07 20:54 37.37620 -10.39616 35964 ft 502 kts 14°
2026-05-07 20:54 37.44270 -10.37114 35967 ft 503 kts 14°
2026-05-07 20:55 37.50969 -10.34588 35981 ft 503 kts 15°
2026-05-07 20:55 37.57678 -10.32055 35960 ft 504 kts 15°
2026-05-07 20:56 37.64389 -10.29516 35961 ft 504 kts 14°
2026-05-07 20:56 37.71097 -10.26968 35960 ft 503 kts 15°
2026-05-07 20:57 37.77767 -10.24437 35961 ft 500 kts 15°
2026-05-07 20:57 37.84429 -10.21919 35961 ft 500 kts 15°
2026-05-07 20:58 37.91092 -10.19372 35946 ft 500 kts 14°
2026-05-07 20:58 37.97758 -10.16815 35967 ft 501 kts 14°
2026-05-07 20:59 38.04433 -10.14262 35959 ft 501 kts 14°
2026-05-07 20:59 38.11110 -10.11705 35958 ft 501 kts 14°
2026-05-07 21:00 38.17778 -10.09143 35958 ft 501 kts 14°
2026-05-07 21:00 38.24442 -10.06577 35965 ft 499 kts 14°
2026-05-07 21:01 38.31087 -10.04013 35961 ft 499 kts 14°
2026-05-07 21:01 38.37734 -10.01445 35952 ft 499 kts 14°
2026-05-07 21:02 38.44324 -9.98896 35954 ft 498 kts 14°
2026-05-07 21:02 38.50963 -9.96322 35962 ft 498 kts 14°
2026-05-07 21:03 38.57589 -9.93747 35952 ft 498 kts 15°
2026-05-07 21:03 38.64209 -9.91169 35952 ft 497 kts 15°
2026-05-07 21:04 38.70817 -9.88592 35954 ft 496 kts 15°
2026-05-07 21:04 38.77414 -9.86012 35954 ft 495 kts 15°
2026-05-07 21:05 38.83997 -9.83434 35953 ft 495 kts 15°
2026-05-07 21:05 38.90571 -9.80854 35948 ft 493 kts 14°
2026-05-07 21:06 38.97127 -9.78277 35964 ft 492 kts 14°
2026-05-07 21:06 39.03674 -9.75699 35948 ft 492 kts 14°
2026-05-07 21:07 39.10205 -9.73121 35949 ft 490 kts 15°
2026-05-07 21:07 39.16723 -9.70545 35951 ft 489 kts 15°
2026-05-07 21:08 39.23226 -9.67969 35955 ft 489 kts 15°
2026-05-07 21:08 39.29730 -9.65387 35951 ft 489 kts 15°
2026-05-07 21:09 39.36235 -9.62801 35952 ft 489 kts 15°
2026-05-07 21:09 39.42743 -9.60207 35965 ft 490 kts 15°
2026-05-07 21:10 39.49218 -9.57621 35952 ft 491 kts 15°
2026-05-07 21:10 39.55741 -9.55012 35951 ft 490 kts 15°
2026-05-07 21:11 39.62268 -9.52396 35951 ft 491 kts 15°
2026-05-07 21:11 39.72124 -9.48436 36129 ft 498 kts 14°
2026-05-07 21:12 39.75430 -9.47107 36329 ft 498 kts 15°
2026-05-07 21:12 39.78741 -9.45773 36561 ft 497 kts 14°
2026-05-07 21:12 39.82033 -9.44443 36884 ft 494 kts 14°
2026-05-07 21:12 39.85309 -9.43122 37155 ft 493 kts 14°
2026-05-07 21:13 39.88581 -9.41797 37348 ft 493 kts 14°
2026-05-07 21:13 39.91856 -9.40465 37516 ft 493 kts 14°
2026-05-07 21:13 39.95130 -9.39138 37658 ft 494 kts 14°
2026-05-07 21:13 39.97300 -9.38259 37794 ft 493 kts 14°
2026-05-07 21:14 40.00577 -9.36930 37950 ft 493 kts 14°
2026-05-07 21:14 40.03865 -9.35597 37931 ft 496 kts 14°
2026-05-07 21:14 40.10446 -9.32920 37962 ft 494 kts 14°
2026-05-07 21:15 40.16990 -9.30250 37942 ft 491 kts 14°
2026-05-07 21:15 40.23500 -9.27590 37939 ft 489 kts 14°
2026-05-07 21:16 40.29979 -9.24939 37937 ft 487 kts 14°
2026-05-07 21:16 40.36437 -9.22292 37942 ft 486 kts 14°
2026-05-07 21:17 40.42897 -9.19638 37944 ft 487 kts 14°
2026-05-07 21:17 40.49372 -9.16972 37947 ft 488 kts 14°
2026-05-07 21:18 40.55871 -9.14291 37950 ft 491 kts 14°
2026-05-07 21:18 40.62403 -9.11592 37946 ft 493 kts 14°
2026-05-07 21:19 40.68967 -9.08873 37924 ft 495 kts 14°
2026-05-07 21:19 40.75544 -9.06142 37940 ft 496 kts 13°
2026-05-07 21:20 40.82128 -9.03402 37942 ft 496 kts 13°
2026-05-07 21:20 40.88697 -9.00663 37929 ft 495 kts 13°
2026-05-07 21:21 40.95208 -8.97941 37928 ft 493 kts 13°
2026-05-07 21:21 41.01727 -8.95212 37933 ft 490 kts 13°
2026-05-07 21:22 41.08214 -8.92491 37930 ft 488 kts 13°
2026-05-07 21:22 41.14676 -8.89774 37930 ft 486 kts 13°
2026-05-07 21:23 41.21111 -8.87064 37935 ft 484 kts 13°
2026-05-07 21:23 41.27531 -8.84354 37944 ft 484 kts 13°
2026-05-07 21:24 41.33939 -8.81644 37934 ft 483 kts 13°
2026-05-07 21:24 41.40351 -8.78927 37936 ft 484 kts 13°
2026-05-07 21:25 41.46764 -8.76203 37942 ft 484 kts 13°
2026-05-07 21:25 41.53190 -8.73468 37925 ft 485 kts 14°
2026-05-07 21:26 41.59631 -8.70722 37924 ft 486 kts 13°
2026-05-07 21:26 41.66073 -8.67969 37940 ft 487 kts 13°
2026-05-07 21:27 41.72526 -8.65205 37932 ft 486 kts 13°
2026-05-07 21:27 41.78967 -8.62439 37912 ft 486 kts 13°
2026-05-07 21:28 41.85399 -8.59660 37903 ft 486 kts 14°
2026-05-07 21:28 41.91729 -8.56448 37918 ft 487 kts 18°
2026-05-07 21:29 41.97990 -8.53006 37908 ft 486 kts 18°
2026-05-07 21:29 42.04198 -8.49602 37925 ft 484 kts 18°
2026-05-07 21:30 42.10440 -8.46223 37923 ft 483 kts 17°
2026-05-07 21:30 42.16674 -8.42866 37909 ft 482 kts 17°
2026-05-07 21:31 42.22897 -8.39511 37914 ft 481 kts 17°
2026-05-07 21:31 42.29107 -8.36154 37912 ft 481 kts 17°
2026-05-07 21:32 42.35309 -8.32793 37936 ft 480 kts 17°
2026-05-07 21:32 42.41496 -8.29428 37899 ft 478 kts 17°
2026-05-07 21:33 42.47652 -8.26078 37909 ft 477 kts 17°
2026-05-07 21:33 42.53802 -8.22726 37908 ft 476 kts 17°
2026-05-07 21:34 42.59942 -8.19369 37906 ft 475 kts 17°
2026-05-07 21:34 42.66071 -8.16011 37915 ft 475 kts 17°
2026-05-07 21:35 42.72194 -8.12649 37910 ft 475 kts 17°
2026-05-07 21:35 42.78286 -8.09298 37920 ft 475 kts 17°
2026-05-07 21:36 42.84405 -8.05924 37904 ft 475 kts 17°
2026-05-07 21:36 42.90524 -8.02542 37911 ft 474 kts 17°
2026-05-07 21:37 42.96635 -7.99157 37920 ft 473 kts 17°
2026-05-07 21:37 43.02731 -7.95775 37910 ft 473 kts 17°
2026-05-07 21:38 43.08822 -7.92388 37908 ft 472 kts 17°
2026-05-07 21:38 43.14897 -7.89002 37907 ft 471 kts 17°
2026-05-07 21:39 43.20962 -7.85615 37912 ft 471 kts 17°
2026-05-07 21:39 43.27019 -7.82224 37904 ft 469 kts 17°
2026-05-07 21:40 43.33055 -7.78839 37904 ft 468 kts 17°
2026-05-07 21:40 43.39072 -7.75456 37927 ft 467 kts 17°
2026-05-07 21:41 43.45076 -7.72074 37911 ft 466 kts 17°
2026-05-07 21:41 43.51071 -7.68690 37902 ft 465 kts 17°
2026-05-07 21:42 43.57061 -7.65300 37896 ft 465 kts 17°
2026-05-07 21:42 43.63042 -7.61909 37902 ft 465 kts 17°
2026-05-07 21:43 43.69016 -7.58514 37902 ft 463 kts 17°
2026-05-07 21:43 43.74967 -7.55125 37887 ft 462 kts 17°
2026-05-07 21:44 43.80893 -7.51743 37905 ft 460 kts 17°
2026-05-07 21:44 43.86797 -7.48366 37898 ft 458 kts 17°
2026-05-07 21:45 43.92649 -7.45013 37900 ft 457 kts 17°
2026-05-07 21:45 43.98517 -7.41643 37917 ft 456 kts 17°
2026-05-07 21:46 44.04389 -7.38264 37914 ft 457 kts 18°
2026-05-07 21:46 44.10267 -7.34874 37913 ft 457 kts 18°
2026-05-07 21:47 44.16150 -7.31473 37915 ft 458 kts 18°
2026-05-07 21:47 44.22049 -7.28056 37921 ft 460 kts 18°
2026-05-07 21:48 44.27965 -7.24621 37919 ft 461 kts 18°
2026-05-07 21:48 44.33892 -7.21172 37916 ft 462 kts 18°
2026-05-07 21:49 44.39832 -7.17708 37938 ft 463 kts 18°
2026-05-07 21:49 44.45786 -7.14228 37923 ft 464 kts 18°
2026-05-07 21:50 44.51747 -7.10736 37925 ft 464 kts 18°
2026-05-07 21:50 44.57705 -7.07238 37929 ft 464 kts 18°
2026-05-07 21:51 44.63659 -7.03733 37933 ft 464 kts 18°
2026-05-07 21:51 44.69604 -7.00227 37932 ft 463 kts 18°
2026-05-07 21:52 44.75536 -6.96721 37929 ft 462 kts 18°
2026-05-07 21:52 44.81417 -6.93238 37951 ft 462 kts 18°
2026-05-07 21:53 44.87334 -6.89737 37935 ft 461 kts 18°
2026-05-07 21:53 44.93239 -6.86261 37941 ft 459 kts 18°
2026-05-07 21:54 44.99127 -6.82788 37952 ft 458 kts 18°
2026-05-07 21:54 45.04985 -6.79324 37935 ft 456 kts 18°
2026-05-07 21:55 45.10823 -6.75860 37948 ft 454 kts 18°
2026-05-07 21:55 45.16632 -6.72406 37951 ft 452 kts 18°
2026-05-07 21:56 45.22422 -6.68957 37961 ft 451 kts 19°
2026-05-07 21:56 45.28189 -6.65512 37953 ft 449 kts 19°
2026-05-07 21:57 45.33944 -6.62069 37949 ft 448 kts 19°
2026-05-07 21:57 45.39682 -6.58627 37964 ft 447 kts 19°
2026-05-07 21:58 45.45418 -6.55179 37947 ft 447 kts 19°
2026-05-07 21:58 45.51148 -6.51726 37960 ft 447 kts 19°
2026-05-07 21:59 45.56874 -6.48269 37957 ft 447 kts 19°
2026-05-07 21:59 45.62601 -6.44804 37966 ft 447 kts 19°
2026-05-07 22:00 45.68327 -6.41330 37959 ft 447 kts 19°
2026-05-07 22:00 45.74056 -6.37847 37961 ft 447 kts 20°
2026-05-07 22:01 45.79784 -6.34358 37974 ft 447 kts 20°
2026-05-07 22:01 45.84544 -6.31452 37966 ft 448 kts 20°
2026-05-07 22:02 45.90280 -6.27944 37967 ft 448 kts 20°
2026-05-07 22:02 45.96011 -6.24430 37966 ft 448 kts 20°
2026-05-07 22:03 46.01744 -6.20907 37984 ft 448 kts 20°
2026-05-07 22:03 46.07484 -6.17372 37971 ft 449 kts 20°
2026-05-07 22:04 46.13225 -6.13829 37970 ft 449 kts 20°
2026-05-07 22:04 46.18962 -6.10278 37976 ft 449 kts 20°
2026-05-07 22:05 46.24705 -6.06716 37977 ft 449 kts 20°
2026-05-07 22:05 46.30449 -6.03145 37975 ft 450 kts 20°
2026-05-07 22:06 46.36158 -5.99589 37981 ft 450 kts 20°
2026-05-07 22:06 46.41907 -5.95999 38006 ft 450 kts 20°
2026-05-07 22:07 46.47663 -5.92398 37980 ft 450 kts 20°
2026-05-07 22:07 46.53413 -5.88791 37984 ft 450 kts 20°
2026-05-07 22:08 46.59166 -5.85173 38001 ft 450 kts 20°
2026-05-07 22:08 46.64915 -5.81550 37988 ft 450 kts 20°
2026-05-07 22:09 46.70657 -5.77923 37989 ft 450 kts 20°
2026-05-07 22:09 46.76404 -5.74286 37991 ft 450 kts 20°
2026-05-07 22:10 46.82140 -5.70645 38002 ft 450 kts 20°
2026-05-07 22:10 46.87885 -5.66990 37992 ft 450 kts 20°
2026-05-07 22:11 46.93635 -5.63325 38000 ft 451 kts 20°
2026-05-07 22:11 46.99394 -5.59644 37996 ft 452 kts 20°
2026-05-07 22:12 47.05165 -5.55947 38019 ft 453 kts 20°
2026-05-07 22:12 47.10951 -5.52231 38004 ft 455 kts 20°
2026-05-07 22:13 47.16751 -5.48498 38001 ft 456 kts 20°
2026-05-07 22:13 47.22563 -5.44747 38005 ft 457 kts 20°
2026-05-07 22:14 47.28387 -5.40981 38012 ft 457 kts 20°
2026-05-07 22:14 47.34216 -5.37202 38006 ft 458 kts 21°
2026-05-07 22:15 47.40052 -5.33409 38010 ft 458 kts 21°
2026-05-07 22:15 47.45883 -5.29610 38012 ft 458 kts 21°
2026-05-07 22:16 47.51722 -5.25797 38006 ft 459 kts 21°
2026-05-07 22:16 47.57557 -5.21977 38009 ft 458 kts 21°
2026-05-07 22:17 47.63385 -5.18152 38007 ft 458 kts 21°
2026-05-07 22:17 47.69207 -5.14321 38028 ft 458 kts 21°
2026-05-07 22:18 47.77941 -5.08558 38014 ft 458 kts 21°
2026-05-07 22:19 47.83763 -5.04703 38005 ft 458 kts 21°
2026-05-07 22:19 47.89586 -5.00839 38017 ft 458 kts 21°
2026-05-07 22:20 47.95378 -4.96987 38022 ft 459 kts 21°
2026-05-07 22:20 48.01217 -4.93094 38020 ft 460 kts 21°
2026-05-07 22:21 48.07065 -4.89185 38021 ft 461 kts 21°
2026-05-07 22:21 48.12926 -4.85256 38034 ft 462 kts 21°
2026-05-07 22:22 48.18792 -4.81315 38022 ft 463 kts 21°
2026-05-07 22:22 48.24671 -4.77355 38021 ft 463 kts 21°
2026-05-07 22:23 48.30555 -4.73381 38023 ft 464 kts 21°
2026-05-07 22:23 48.36441 -4.69397 38030 ft 464 kts 22°
2026-05-07 22:24 48.42330 -4.65400 38020 ft 464 kts 22°
2026-05-07 22:24 48.48212 -4.61397 38022 ft 464 kts 22°
2026-05-07 22:25 48.54091 -4.57386 38025 ft 463 kts 22°
2026-05-07 22:25 48.59963 -4.53371 38025 ft 463 kts 22°
2026-05-07 22:26 48.65826 -4.49350 38016 ft 463 kts 22°
2026-05-07 22:26 48.71678 -4.45326 38018 ft 461 kts 22°
2026-05-07 22:27 48.77516 -4.41303 38021 ft 460 kts 22°
2026-05-07 22:27 48.83342 -4.37277 38019 ft 460 kts 22°
2026-05-07 22:28 48.89157 -4.33248 38015 ft 459 kts 22°
2026-05-07 22:28 48.94968 -4.29212 38016 ft 459 kts 22°
2026-05-07 22:29 49.00772 -4.25171 38016 ft 459 kts 22°
2026-05-07 22:29 49.06577 -4.21118 38015 ft 459 kts 22°
2026-05-07 22:30 49.12383 -4.17054 38012 ft 459 kts 22°
2026-05-07 22:30 49.18192 -4.12978 38019 ft 459 kts 22°
2026-05-07 22:31 49.24005 -4.08888 38035 ft 460 kts 22°
2026-05-07 22:31 49.29826 -4.04781 38009 ft 461 kts 22°
2026-05-07 22:32 49.35617 -4.00685 38005 ft 462 kts 22°
2026-05-07 22:32 49.41450 -3.96548 38010 ft 462 kts 22°
2026-05-07 22:33 49.47292 -3.92395 38017 ft 463 kts 22°
2026-05-07 22:33 49.53139 -3.88226 38010 ft 463 kts 22°
2026-05-07 22:34 49.58989 -3.84044 38008 ft 463 kts 22°
2026-05-07 22:34 49.64836 -3.79853 38004 ft 463 kts 22°
2026-05-07 22:35 49.70843 -3.76411 38015 ft 459 kts
2026-05-07 22:35 49.77143 -3.75400 38011 ft 455 kts
2026-05-07 22:36 49.83464 -3.74774 38007 ft 455 kts
2026-05-07 22:36 49.89774 -3.74064 38006 ft 455 kts
2026-05-07 22:37 49.96073 -3.73069 38010 ft 455 kts
2026-05-07 22:37 50.02369 -3.72004 38021 ft 455 kts
2026-05-07 22:38 50.08668 -3.70965 38021 ft 455 kts
2026-05-07 22:38 50.14962 -3.69947 38030 ft 455 kts
2026-05-07 22:39 50.21263 -3.68932 38019 ft 455 kts
2026-05-07 22:39 50.27566 -3.67915 38018 ft 455 kts
2026-05-07 22:40 50.33825 -3.66902 38032 ft 455 kts
2026-05-07 22:40 50.40135 -3.65877 38038 ft 456 kts
2026-05-07 22:41 50.46444 -3.64850 38036 ft 456 kts
2026-05-07 22:41 50.52757 -3.63818 38025 ft 456 kts
2026-05-07 22:42 50.59072 -3.62783 38041 ft 456 kts
2026-05-07 22:42 50.65392 -3.61745 38054 ft 457 kts
2026-05-07 22:43 50.71714 -3.60704 38039 ft 457 kts
2026-05-07 22:43 50.78038 -3.59660 38051 ft 457 kts
2026-05-07 22:44 50.84359 -3.58614 38060 ft 457 kts
2026-05-07 22:44 50.90684 -3.57563 38042 ft 457 kts
2026-05-07 22:45 50.97006 -3.56511 38046 ft 456 kts
2026-05-07 22:45 51.03325 -3.55510 38042 ft 456 kts
2026-05-07 22:46 51.09637 -3.54623 38037 ft 455 kts
2026-05-07 22:46 51.15946 -3.53741 38043 ft 455 kts
2026-05-07 22:47 51.22258 -3.52840 38047 ft 455 kts
2026-05-07 22:47 51.28566 -3.51927 38056 ft 455 kts
2026-05-07 22:48 51.34870 -3.51012 38048 ft 455 kts
2026-05-07 22:48 51.41182 -3.50092 38051 ft 455 kts
2026-05-07 22:49 51.47488 -3.49171 38048 ft 455 kts
2026-05-07 22:49 51.53749 -3.48254 38061 ft 455 kts
2026-05-07 22:50 51.60055 -3.47329 38053 ft 455 kts
2026-05-07 22:50 51.66371 -3.46399 38047 ft 456 kts
2026-05-07 22:51 51.71661 -3.45618 38052 ft 455 kts
2026-05-07 22:51 51.77975 -3.44683 38063 ft 455 kts
2026-05-07 22:52 51.84247 -3.43752 38055 ft 456 kts
2026-05-07 22:52 51.90598 -3.42807 38049 ft 456 kts
2026-05-07 22:53 51.96909 -3.41865 38055 ft 455 kts
2026-05-07 22:53 52.03179 -3.40927 38062 ft 455 kts
2026-05-07 22:54 52.09529 -3.39974 38043 ft 453 kts
2026-05-07 22:54 52.12593 -3.39511 37819 ft 444 kts
2026-05-07 22:54 52.15653 -3.39049 37397 ft 440 kts
2026-05-07 22:54 52.18704 -3.38589 36883 ft 439 kts
2026-05-07 22:55 52.21743 -3.38131 36404 ft 438 kts
2026-05-07 22:55 52.24766 -3.37675 36007 ft 435 kts
2026-05-07 22:55 52.27771 -3.37220 35628 ft 432 kts
2026-05-07 22:55 52.30756 -3.36767 35252 ft 429 kts
2026-05-07 22:56 52.33715 -3.36318 34867 ft 426 kts
2026-05-07 22:56 52.36654 -3.35841 34479 ft 424 kts
2026-05-07 22:56 52.39590 -3.35211 33949 ft 427 kts
2026-05-07 22:56 52.42536 -3.34503 33390 ft 427 kts
2026-05-07 22:57 52.45454 -3.33790 32990 ft 423 kts
2026-05-07 22:57 52.48362 -3.33090 32647 ft 419 kts
2026-05-07 22:57 52.51235 -3.32414 32267 ft 416 kts
2026-05-07 22:57 52.54090 -3.31754 31864 ft 413 kts
2026-05-07 22:58 52.56931 -3.31103 31472 ft 411 kts
2026-05-07 22:58 52.59760 -3.30457 31097 ft 409 kts
2026-05-07 22:58 52.62565 -3.29815 30726 ft 406 kts
2026-05-07 22:58 52.65358 -3.29175 30367 ft 404 kts
2026-05-07 22:59 52.68121 -3.28433 29977 ft 402 kts 13°
2026-05-07 22:59 52.70739 -3.26869 29583 ft 397 kts 26°
2026-05-07 22:59 52.73078 -3.24576 29233 ft 388 kts 33°
2026-05-07 22:59 52.75318 -3.22140 28709 ft 385 kts 34°
2026-05-07 23:00 52.77547 -3.19690 28125 ft 384 kts 34°
2026-05-07 23:00 52.79760 -3.17249 27594 ft 381 kts 34°
2026-05-07 23:00 52.81956 -3.14822 27107 ft 378 kts 34°
2026-05-07 23:00 52.84132 -3.12418 26642 ft 375 kts 34°
2026-05-07 23:01 52.86297 -3.10027 26178 ft 372 kts 34°
2026-05-07 23:01 52.88410 -3.07690 25722 ft 369 kts 34°
2026-05-07 23:01 52.90536 -3.05338 25258 ft 366 kts 34°
2026-05-07 23:01 52.92646 -3.03002 24798 ft 364 kts 33°
2026-05-07 23:02 52.94749 -3.00672 24407 ft 363 kts 33°
2026-05-07 23:02 52.96837 -2.98354 24094 ft 360 kts 33°
2026-05-07 23:02 52.98909 -2.96052 23797 ft 357 kts 33°
2026-05-07 23:02 53.00968 -2.93762 23433 ft 356 kts 33°
2026-05-07 23:03 53.03018 -2.91479 23054 ft 354 kts 33°
2026-05-07 23:03 53.05045 -2.89220 22632 ft 349 kts 33°
2026-05-07 23:03 53.07061 -2.86971 22127 ft 348 kts 33°
2026-05-07 23:03 53.09064 -2.84733 21633 ft 347 kts 33°
2026-05-07 23:04 53.11062 -2.82498 21190 ft 344 kts 33°
2026-05-07 23:04 53.13042 -2.80282 20766 ft 342 kts 33°
2026-05-07 23:04 53.15008 -2.78077 20352 ft 341 kts 33°
2026-05-07 23:04 53.16972 -2.75874 20024 ft 339 kts 33°
2026-05-07 23:05 53.18922 -2.73682 19713 ft 337 kts 33°
2026-05-07 23:05 53.20856 -2.71506 19402 ft 335 kts 33°
2026-05-07 23:05 53.22784 -2.69336 19086 ft 333 kts 33°
2026-05-07 23:05 53.24705 -2.67169 18735 ft 333 kts 33°
2026-05-07 23:06 53.26621 -2.65008 18413 ft 332 kts 33°
2026-05-07 23:06 53.28531 -2.62850 18073 ft 329 kts 33°
2026-05-07 23:06 53.30418 -2.60717 17677 ft 326 kts 33°
2026-05-07 23:06 53.32291 -2.58595 17238 ft 325 kts 33°
2026-05-07 23:07 53.34159 -2.56478 16823 ft 323 kts 33°
2026-05-07 23:07 53.36006 -2.54382 16433 ft 320 kts 33°
2026-05-07 23:07 53.37846 -2.52292 16042 ft 317 kts 33°
2026-05-07 23:07 53.39664 -2.50224 15644 ft 315 kts 33°
2026-05-07 23:08 53.41475 -2.48164 15242 ft 313 kts 33°
2026-05-07 23:08 53.43247 -2.46144 14881 ft 311 kts 33°
2026-05-07 23:08 53.45055 -2.44082 14510 ft 309 kts 33°
2026-05-07 23:08 53.46802 -2.42088 14134 ft 308 kts 33°
2026-05-07 23:09 53.48567 -2.40073 13766 ft 305 kts 33°
2026-05-07 23:09 53.50314 -2.38074 13366 ft 303 kts 34°
2026-05-07 23:09 53.52063 -2.36106 12948 ft 302 kts 32°
2026-05-07 23:09 53.53856 -2.34275 12547 ft 304 kts 30°
2026-05-07 23:10 53.55676 -2.32467 12148 ft 305 kts 30°
2026-05-07 23:10 53.57507 -2.30662 11798 ft 305 kts 30°
2026-05-07 23:10 53.59335 -2.28869 11491 ft 303 kts 30°
2026-05-07 23:10 53.61155 -2.27091 11193 ft 302 kts 30°
2026-05-07 23:11 53.62966 -2.25328 10876 ft 301 kts 30°
2026-05-07 23:11 53.64781 -2.23568 10528 ft 302 kts 30°
2026-05-07 23:11 53.66613 -2.21795 10131 ft 305 kts 30°
2026-05-07 23:11 53.68450 -2.20023 9802 ft 303 kts 30°
2026-05-07 23:12 53.70274 -2.18265 9458 ft 302 kts 30°
2026-05-07 23:12 53.72098 -2.16509 9197 ft 300 kts 30°
2026-05-07 23:12 53.73898 -2.14734 8876 ft 300 kts 33°
2026-05-07 23:12 53.75639 -2.12792 8560 ft 300 kts 34°
2026-05-07 23:13 53.77358 -2.10816 8298 ft 298 kts 34°
2026-05-07 23:13 53.79054 -2.08850 8052 ft 293 kts 34°
2026-05-07 23:13 53.80713 -2.06908 7817 ft 287 kts 35°
2026-05-07 23:13 53.82335 -2.04995 7571 ft 281 kts 35°
2026-05-07 23:14 53.83925 -2.03114 7262 ft 277 kts 35°
2026-05-07 23:14 53.85495 -2.01255 6906 ft 274 kts 35°
2026-05-07 23:14 53.87046 -1.99415 6556 ft 270 kts 35°
2026-05-07 23:14 53.88573 -1.97601 6196 ft 267 kts 35°
2026-05-07 23:15 53.90090 -1.95798 5822 ft 265 kts 35°
2026-05-07 23:15 53.91585 -1.94019 5515 ft 260 kts 35°
2026-05-07 23:15 53.93053 -1.92275 5200 ft 256 kts 35°
2026-05-07 23:15 53.94507 -1.90551 4885 ft 253 kts 35°
2026-05-07 23:16 53.95908 -1.88799 4565 ft 248 kts 44°
2026-05-07 23:16 53.96948 -1.86528 4258 ft 240 kts 71°
2026-05-07 23:16 53.97079 -1.83860 3911 ft 221 kts 112°
2026-05-07 23:16 53.96348 -1.81707 3641 ft 206 kts 132°
2026-05-07 23:17 53.95440 -1.79869 3329 ft 200 kts 136°
2026-05-07 23:17 53.94481 -1.78200 3005 ft 194 kts 141°
2026-05-07 23:17 53.93517 -1.76709 2716 ft 181 kts 142°
2026-05-07 23:17 53.93415 -1.76552 2684 ft 180 kts 142°
2026-05-07 23:18 53.93138 -1.76130 2594 ft 176 kts 142°
2026-05-07 23:18 53.92259 -1.74781 2327 ft 165 kts 142°
2026-05-07 23:18 53.91437 -1.73515 2107 ft 152 kts 142°
2026-05-07 23:18 53.90692 -1.72369 1855 ft 136 kts 142°
2026-05-07 23:19 53.90011 -1.71323 1628 ft 130 kts 142°
2026-05-07 23:19 53.89328 -1.70279 1377 ft 135 kts 141°
2026-05-07 23:19 53.88635 -1.69205 1226 ft 137 kts 139°
2026-05-07 23:19 53.87929 -1.68117 959 ft 138 kts 138°
2026-05-07 23:20 53.87234 -1.67048 744 ft 132 kts 137°
2026-05-07 23:20 53.86597 -1.66069 665 ft 98 kts 137°
2026-05-07 23:20 53.86291 -1.65597 677 ft 31 kts 137°
2026-05-07 23:20 53.86251 -1.65490 679 ft 5 kts 71°
2026-05-07 23:21 53.86284 -1.65461 678 ft 8 kts
2026-05-07 23:21 53.86374 -1.65451 676 ft 19 kts
2026-05-07 23:21 53.86537 -1.65436 666 ft 25 kts
2026-05-07 23:21 53.86695 -1.65419 660 ft 16 kts
2026-05-07 23:22 53.86786 -1.65414 661 ft 7 kts 356°
2026-05-07 23:22 53.86815 -1.65461 662 ft 4 kts 302°
2026-05-07 23:22 53.86841 -1.65481 663 ft 4 kts 352°
2026-05-07 23:22 53.86870 -1.65482 664 ft 3 kts
2026-05-07 23:23 53.86876 -1.65482 664 ft 0 kts